Wetbulb
59.10 58.03 57.62 57.16 56.67 56.64 56.22 55.00 54.86 54.95 54.98 55.80 56.45 56.40 56.17 56.16 56.13 56.38 55.95 60.54 62.68 62.66 62.25 61.94 61.73 61.21 60.54 60.18 59.67 59.13 58.81 58.57 58.20 57.93 57.49 57.37 57.16 57.12 57.09 56.90 57.11 56.84 57.09
59.31 58.48 58.06 57.37 56.18 55.94 54.91 54.67 54.39 54.40 54.04 55.02 54.96 55.37 55.53 55.37 55.33 55.40 55.94 57.55 61.42 62.27 61.64 61.27 61.04 60.76 60.14 59.55 58.84 58.39 57.92 57.69 57.43 57.26 56.77 56.65 56.25 56.35 56.31 56.08 56.13 56.47 55.82
58.21 57.77 57.51 56.49 55.95 55.35 54.95 54.53 54.22 54.24 53.95 54.51 53.83 54.63 55.27 55.10 54.68 54.55 54.40 54.35 55.86 58.99 60.35 59.43 59.50 59.34 59.35 59.11 58.44 57.60 56.92 56.51 56.14 56.18 55.99 55.67 55.23 55.55 55.33 55.24 55.18 55.56 55.29
55.91 55.00 54.56 54.49 55.14 54.89 54.39 53.73 53.33 52.74 52.63 52.69 51.84 52.00 52.58 53.96 53.86 53.29 53.15 52.73 52.47 53.27 57.19 57.23 57.02 57.17 57.24 57.47 57.57 57.32 56.53 55.94 55.50 55.35 55.32 54.99 54.69 54.53 54.64 54.69 54.89 54.87 54.99
56.57 55.30 53.90 53.64 54.83 54.36 53.66 53.68 51.97 52.18 51.08 50.88 51.44 50.87 49.82 49.34 51.60 53.54 52.29 52.10 51.55 51.64 50.00 55.36 56.08 55.32 54.81 56.10 56.32 56.74 56.46 55.79 55.50 55.13 54.99 54.76 54.37 54.17 54.52 54.43 54.54 54.64 54.52
56.96 54.85 53.60 53.19 53.82 53.61 52.86 52.34 51.28 50.49 50.57 50.41 51.17 49.29 47.47 47.41 47.18 47.80 49.65 51.37 51.04 50.97 49.20 48.47 48.84 49.28 53.86 54.44 54.95 55.40 55.60 55.86 55.48 55.31 55.18 55.10 54.67 54.31 54.31 54.23 54.34 54.55 54.45
56.74 54.34 53.14 52.41 52.14 52.51 52.12 51.71 50.14 49.72 48.99 48.05 47.30 46.73 46.70 46.79 45.91 45.78 45.78 46.47 47.62 47.67 48.39 46.91 43.83 43.01 44.57 53.41 53.13 53.62 54.36 55.35 55.58 55.48 55.22 55.03 55.17 54.71 54.29 54.28 54.23 54.42 54.34
56.33 54.34 52.99 52.01 51.32 51.14 50.63 50.54 49.98 48.42 48.43 47.74 46.16 45.02 43.47 45.56 46.84 47.52 45.82 45.58 44.59 45.00 44.87 44.34 43.96 42.99 42.52 42.39 45.39 52.34 53.45 54.75 55.28 55.69 55.36 55.17 55.34 55.25 54.86 54.58 54.30 54.41 54.19
56.05 55.24 53.71 52.80 51.59 51.12 50.23 49.79 49.62 49.28 47.61 47.64 47.43 46.31 42.27 41.89 44.02 46.39 46.77 46.51 45.46 43.87 43.39 43.29 42.29 41.98 41.44 40.31 44.70 47.82 52.10 53.15 53.54 54.76 55.22 55.42 55.31 55.48 55.52 55.23 54.70 54.29 54.03
56.79 55.98 54.68 53.71 53.27 52.86 50.72 49.91 50.26 49.09 48.49 47.16 47.52 48.90 46.92 46.14 43.65 42.63 45.54 46.11 46.54 46.29 44.82 43.68 43.16 42.32 41.15 40.30 43.04 45.69 48.87 52.34 53.04 54.10 55.31 55.57 55.78 55.77 56.14 55.91 55.12 54.18 53.89
57.06 56.81 55.85 54.81 54.14 54.19 53.00 51.26 49.63 49.37 48.97 47.96 47.43 46.76 45.98 45.85 45.20 43.84 42.32 43.56 45.75 45.97 45.73 45.52 45.59 43.85 42.94 41.91 41.10 42.98 48.95 51.21 52.83 54.06 55.28 55.81 56.31 56.44 56.57 56.53 55.64 54.13 53.42
56.46 56.72 56.79 55.99 55.40 54.84 53.83 52.68 51.36 50.05 49.55 49.46 48.84 48.33 47.66 46.11 45.13 44.08 42.60 43.34 43.34 46.00 46.86 46.02 44.72 44.98 45.25 43.29 44.08 46.61 48.35 50.51 52.60 54.09 55.40 55.98 56.21 56.54 56.53 56.54 56.07 54.40 53.08
55.28 56.10 56.45 56.25 55.90 55.56 54.99 54.17 52.48 51.27 50.57 50.26 50.06 49.77 49.23 48.85 48.34 47.06 45.43 44.48 43.94 45.46 46.48 46.60 46.61 46.04 46.50 43.90 43.84 46.33 48.02 50.27 52.06 53.70 55.12 55.93 55.62 55.49 55.20 55.56 55.77 54.76 52.92
57.46 57.64 57.27 57.29 57.14 56.63 55.92 54.82 53.70 53.20 51.87 51.44 50.82 50.44 51.19 51.03 49.68 48.91 48.01 45.89 43.99 43.37 44.51 46.49 47.29 46.43 46.54 45.71 45.49 47.08 44.54 49.43 51.48 52.46 53.92 54.55 54.80 54.67 54.33 54.01 54.17 53.67 51.97
58.29 57.13 57.54 57.20 57.29 57.21 56.69 56.74 55.85 55.13 55.55 54.72 54.15 53.74 53.03 53.53 53.13 52.87 51.77 51.05 49.73 43.65 45.33 46.26 46.08 47.84 46.66 44.97 45.99 44.37 43.59 45.87 50.13 51.85 52.42 52.62 52.17 52.29 52.74 52.10 52.18 51.94 50.28
57.63 57.04 57.19 57.60 57.64 57.99 57.49 57.77 57.47 57.53 56.74 56.58 56.03 55.22 54.39 54.54 54.27 53.64 52.72 52.03 51.14 50.58 48.73 47.83 47.49 47.55 45.55 45.11 45.39 44.35 43.76 45.58 47.80 50.63 51.42 50.91 50.74 50.67 50.82 50.57 50.13 50.30 49.23
58.29 57.48 57.78 58.24 58.34 57.90 58.03 58.00 58.05 57.96 56.74 56.70 55.03 55.75 55.27 55.48 55.02 54.91 54.00 53.40 52.15 51.10 49.62 52.36 48.70 47.56 45.83 45.28 45.33 43.09 43.47 42.57 43.11 47.76 50.03 50.76 50.28 49.82 49.60 49.31 48.77 48.90 48.32
59.49 59.11 58.85 58.44 58.59 58.67 58.64 57.43 57.59 57.42 55.60 55.65 55.55 54.90 54.87 55.83 54.80 55.49 54.89 54.29 53.97 53.75 51.72 50.54 52.89 47.41 47.04 49.14 47.74 44.41 43.16 42.70 42.36 45.01 46.78 49.05 49.72 49.45 49.08 48.49 47.89 47.87 47.37
54.34 55.94 57.57 57.07 57.09 57.68 57.63 57.52 57.57 57.26 56.91 56.31 56.06 54.98 54.96 54.78 54.19 55.10 55.16 54.60 54.45 54.14 53.71 51.35 52.31 54.05 51.26 44.94 43.23 40.52 39.72 40.69 41.84 43.56 45.11 46.35 48.39 48.76 48.69 48.37 47.78 47.26 47.07
48.91 49.03 50.90 52.60 54.27 54.90 55.19 55.59 56.38 56.73 56.42 55.90 55.85 56.00 55.86 55.70 55.38 55.36 55.24 54.68 55.07 54.73 54.12 52.51 51.53 51.71 52.25 46.76 41.29 43.55 45.55 39.32 41.30 40.33 42.01 43.24 44.96 46.91 48.06 47.97 47.24 46.04 46.05
44.49 45.23 46.33 47.47 49.17 49.32 47.04 46.73 47.66 49.56 51.36 52.12 54.60 55.88 55.82 53.73 50.03 53.28 55.73 55.61 55.07 54.22 53.70 52.48 51.16 50.98 50.28 45.09 44.20 45.22 40.61 43.63 41.20 40.59 37.82 38.62 39.63 40.91 42.20 46.03 44.96 45.00 45.38
41.06 42.43 43.59 44.84 45.92 46.71 45.39 45.11 44.98 44.86 45.86 46.28 47.40 48.60 49.55 48.00 47.78 48.29 48.11 47.37 48.35 51.20 53.00 52.55 52.08 51.03 50.98 50.35 49.90 45.60 43.07 38.54 39.63 38.34 35.86 37.05 37.34 37.75 39.17 40.37 43.19 44.81 44.55
37.90 39.03 40.79 41.83 42.70 43.29 43.74 43.61 44.08 43.51 43.72 44.18 44.82 45.68 45.74 46.91 46.92 46.65 46.26 46.58 47.26 47.55 47.95 48.44 48.31 49.91 50.33 50.66 49.80 46.83 43.40 42.52 43.26 41.54 37.29 35.63 36.03 35.62 37.81 38.61 41.68 42.49 43.92
35.11 35.98 36.93 38.31 39.40 40.72 41.58 42.77 42.47 42.35 42.60 43.14 43.99 43.23 42.21 42.27 43.40 43.33 42.69 42.69 43.03 43.92 45.24 45.65 45.91 46.42 46.52 46.11 46.70 47.57 46.18 43.40 38.30 36.57 37.52 34.61 34.65 34.87 36.78 36.07 39.99 41.31 41.96
33.28 33.76 34.94 36.18 37.59 39.42 41.19 40.63 39.40 38.92 38.94 38.67 39.69 40.91 40.72 41.02 41.56 41.42 39.71 38.88 38.89 39.74 42.34 42.81 43.01 43.39 44.00 44.94 45.45 43.63 39.65 35.77 36.42 35.19 35.40 35.05 33.81 33.52 33.89 34.45 36.01 39.98 40.95
29.68 31.51 31.97 32.74 35.70 33.27 37.93 37.69 37.22 36.55 35.31 35.34 36.15 36.83 38.02 37.48 38.30 38.69 36.80 36.34 35.48 36.67 38.30 39.01 38.74 40.39 42.21 42.72 44.26 43.82 43.33 38.07 38.04 33.76 34.61 33.83 32.00 33.00 32.70 32.91 33.72 34.22 36.52
MSLP
1023.25 1023.46 1023.68 1023.93 1024.11 1024.19 1024.30 1024.58 1024.65 1024.79 1024.90 1025.16 1025.53 1025.76 1026.08 1026.19 1026.30 1026.40 1026.42 1026.18 1026.29 1026.40 1026.53 1026.57 1026.58 1026.70 1026.78 1026.79 1026.90 1026.98 1027.00 1026.98 1026.98 1026.86 1026.94 1026.80 1026.57 1026.40 1026.21 1026.23 1025.94 1025.90 1025.68
1023.29 1023.52 1023.85 1024.18 1024.43 1024.49 1024.54 1024.75 1024.98 1025.11 1025.33 1025.40 1025.83 1026.09 1026.35 1026.46 1026.46 1026.55 1026.63 1026.61 1026.56 1026.61 1026.65 1026.66 1026.66 1026.70 1026.86 1026.92 1027.05 1027.09 1027.13 1027.06 1027.15 1027.08 1027.02 1026.78 1026.68 1026.56 1026.33 1026.41 1026.24 1026.02 1025.91
1023.28 1023.56 1023.85 1024.23 1024.40 1024.67 1024.74 1024.93 1025.20 1025.45 1025.73 1025.80 1026.10 1026.28 1026.53 1026.71 1026.68 1026.81 1026.89 1026.96 1026.95 1026.99 1026.88 1026.89 1026.82 1026.82 1026.89 1026.96 1027.08 1027.12 1027.20 1027.20 1027.22 1027.14 1027.05 1026.85 1026.78 1026.56 1026.54 1026.52 1026.40 1026.11 1025.91
1023.11 1023.56 1023.89 1024.20 1024.42 1024.76 1024.92 1025.25 1025.42 1025.85 1026.18 1026.34 1026.66 1026.68 1026.78 1026.87 1026.95 1026.97 1027.03 1027.15 1027.22 1027.31 1027.22 1027.19 1027.16 1027.06 1027.00 1026.95 1026.99 1027.06 1027.11 1027.18 1027.18 1027.14 1026.88 1027.00 1026.74 1026.70 1026.65 1026.54 1026.30 1026.09 1025.88
1022.99 1023.35 1023.70 1024.01 1024.34 1024.70 1025.06 1025.34 1025.76 1025.85 1026.32 1026.59 1026.83 1026.98 1027.08 1027.11 1027.10 1027.02 1027.18 1027.29 1027.33 1027.38 1027.46 1027.32 1027.32 1027.27 1027.15 1027.10 1026.97 1026.95 1026.91 1026.96 1027.03 1026.99 1026.91 1026.81 1026.80 1026.77 1026.59 1026.37 1026.19 1026.03 1025.86
1022.84 1023.25 1023.64 1023.85 1024.28 1024.73 1025.19 1025.45 1025.82 1026.13 1026.38 1026.56 1026.96 1027.18 1027.24 1027.24 1027.24 1027.19 1027.14 1027.16 1027.22 1027.29 1027.35 1027.41 1027.44 1027.35 1027.17 1027.10 1026.93 1026.89 1026.75 1026.83 1026.81 1026.72 1026.70 1026.69 1026.70 1026.58 1026.35 1026.17 1026.04 1025.87 1025.73
1022.75 1023.12 1023.52 1023.87 1024.13 1024.65 1024.99 1025.36 1025.91 1026.34 1026.71 1026.89 1027.43 1027.68 1027.43 1027.29 1027.36 1027.28 1027.21 1027.16 1027.11 1027.10 1027.24 1027.28 1027.27 1027.25 1027.22 1026.96 1026.87 1026.76 1026.67 1026.55 1026.42 1026.45 1026.52 1026.42 1026.33 1026.29 1026.16 1025.96 1025.81 1025.68 1025.57
1022.71 1023.09 1023.33 1023.80 1023.97 1024.45 1024.88 1025.39 1025.63 1026.34 1026.65 1026.76 1027.35 1027.89 1027.98 1027.60 1027.17 1026.96 1026.91 1026.92 1026.90 1026.88 1026.93 1026.86 1026.94 1026.98 1026.97 1026.96 1026.81 1026.59 1026.43 1026.27 1026.14 1026.11 1026.04 1025.97 1025.93 1025.91 1025.85 1025.70 1025.59 1025.47 1025.35
1022.46 1022.77 1023.16 1023.43 1023.82 1024.17 1024.65 1025.01 1025.37 1025.73 1026.43 1026.78 1026.80 1027.17 1027.95 1027.77 1027.35 1026.74 1026.64 1026.56 1026.59 1026.73 1026.51 1026.36 1026.29 1026.33 1026.36 1026.40 1026.34 1026.25 1026.11 1026.02 1025.89 1025.69 1025.52 1025.43 1025.40 1025.34 1025.34 1025.32 1025.25 1025.19 1025.08
1022.23 1022.49 1022.93 1023.15 1023.50 1023.96 1024.36 1024.67 1024.91 1025.41 1025.80 1026.55 1026.84 1026.71 1026.87 1027.06 1027.38 1027.38 1026.65 1026.34 1026.32 1026.39 1026.20 1026.10 1025.84 1025.64 1025.66 1025.72 1025.67 1025.62 1025.57 1025.45 1025.39 1025.25 1025.07 1024.91 1024.80 1024.70 1024.66 1024.72 1024.73 1024.73 1024.67
1021.95 1022.18 1022.58 1022.91 1023.23 1023.58 1023.87 1024.24 1024.69 1025.12 1025.28 1025.74 1026.33 1026.56 1026.85 1027.04 1027.14 1027.43 1027.17 1026.49 1026.22 1025.76 1025.55 1025.42 1025.24 1025.16 1025.00 1024.89 1024.93 1024.89 1024.83 1024.83 1024.73 1024.60 1024.46 1024.35 1024.19 1024.07 1023.96 1023.98 1024.14 1024.17 1024.15
1021.87 1021.96 1022.20 1022.53 1022.71 1023.10 1023.55 1023.84 1024.16 1024.71 1025.04 1025.06 1025.41 1025.93 1026.17 1026.44 1026.74 1027.03 1027.16 1026.63 1026.42 1025.56 1025.02 1024.68 1024.59 1024.36 1024.07 1024.07 1024.01 1023.94 1024.01 1024.08 1024.01 1023.87 1023.80 1023.74 1023.58 1023.43 1023.37 1023.34 1023.45 1023.57 1023.60
1021.65 1021.69 1021.93 1022.26 1022.38 1022.63 1022.95 1023.35 1023.81 1024.18 1024.55 1024.75 1024.71 1025.05 1025.29 1025.49 1025.55 1025.88 1026.25 1026.22 1026.16 1025.40 1024.79 1024.19 1023.69 1023.47 1023.14 1023.15 1023.08 1023.07 1023.14 1023.19 1023.23 1023.23 1023.17 1023.09 1023.02 1022.96 1022.94 1022.85 1022.82 1023.00 1023.16
1020.82 1020.95 1021.30 1021.58 1021.70 1022.16 1022.43 1022.90 1023.30 1023.53 1023.84 1024.13 1024.22 1024.35 1024.42 1024.63 1024.80 1024.93 1025.07 1025.40 1025.48 1025.15 1024.60 1023.90 1022.95 1022.58 1022.25 1022.12 1022.10 1022.23 1022.50 1022.37 1022.38 1022.40 1022.37 1022.33 1022.36 1022.42 1022.44 1022.42 1022.41 1022.61 1022.71
1020.30 1020.66 1020.88 1021.25 1021.28 1021.60 1021.94 1022.21 1022.54 1022.58 1022.91 1023.13 1023.26 1023.43 1023.61 1023.58 1023.72 1023.59 1023.65 1023.79 1024.16 1024.36 1023.72 1023.03 1022.88 1021.54 1021.43 1021.58 1021.41 1021.63 1021.69 1021.50 1021.53 1021.49 1021.52 1021.56 1021.69 1021.81 1021.92 1021.98 1021.94 1022.02 1022.12
1019.78 1020.18 1020.54 1020.67 1020.87 1021.03 1021.37 1021.64 1021.95 1021.85 1022.17 1022.23 1022.32 1022.50 1022.62 1022.63 1022.81 1022.92 1022.97 1023.13 1023.27 1023.22 1022.79 1021.86 1021.58 1021.07 1020.92 1020.82 1020.66 1020.85 1020.67 1020.64 1020.63 1020.53 1020.53 1020.66 1020.84 1021.01 1021.12 1021.21 1021.22 1021.22 1021.47
1019.12 1019.48 1019.73 1020.06 1020.25 1020.39 1020.55 1020.99 1021.07 1021.11 1021.44 1021.58 1021.74 1021.91 1021.82 1021.80 1021.85 1021.90 1022.01 1022.12 1022.24 1022.23 1021.91 1020.55 1020.54 1020.26 1020.43 1020.15 1019.77 1019.85 1019.87 1019.98 1019.86 1019.64 1019.68 1019.83 1020.05 1020.22 1020.36 1020.47 1020.71 1020.87 1020.91
1018.48 1018.71 1019.19 1019.48 1019.64 1019.75 1019.99 1020.31 1020.58 1020.62 1020.69 1020.86 1020.93 1021.27 1021.25 1021.31 1021.40 1021.29 1021.27 1021.13 1021.06 1020.83 1020.93 1020.32 1019.71 1019.72 1019.44 1018.95 1018.77 1019.20 1019.05 1019.08 1019.03 1018.80 1019.00 1019.15 1019.30 1019.38 1019.53 1019.68 1019.86 1020.04 1020.29
1018.65 1018.73 1018.96 1019.04 1019.21 1019.32 1019.50 1019.64 1019.85 1020.03 1020.16 1020.19 1020.29 1020.41 1020.41 1020.66 1020.68 1020.43 1020.33 1020.24 1020.13 1020.01 1019.98 1019.82 1019.16 1018.90 1018.69 1018.80 1018.80 1018.92 1018.71 1018.53 1018.34 1018.28 1018.45 1018.56 1018.47 1018.45 1018.52 1018.68 1018.85 1019.10 1019.57
1019.08 1019.08 1019.31 1019.30 1019.15 1019.26 1019.38 1019.50 1019.59 1019.66 1019.67 1019.69 1019.69 1019.87 1019.90 1019.90 1019.77 1019.61 1019.57 1019.37 1019.15 1019.12 1019.08 1018.90 1018.58 1018.37 1018.40 1018.40 1018.75 1018.72 1018.30 1018.05 1017.79 1017.73 1017.57 1017.52 1017.41 1017.29 1017.32 1017.53 1017.94 1018.21 1018.33
1019.48 1019.44 1019.50 1019.73 1019.82 1019.61 1019.84 1019.90 1019.92 1019.89 1019.67 1019.60 1019.43 1019.14 1019.22 1019.11 1019.06 1019.01 1018.76 1018.50 1018.40 1018.32 1018.18 1017.94 1017.70 1017.64 1017.57 1017.89 1018.03 1017.75 1017.88 1017.34 1016.94 1017.11 1017.03 1017.05 1016.85 1016.78 1016.72 1016.78 1016.77 1017.10 1017.40
1019.80 1019.99 1019.70 1020.14 1019.73 1020.27 1020.20 1020.19 1020.23 1020.00 1019.96 1019.96 1019.81 1019.48 1019.33 1019.42 1019.07 1019.03 1018.94 1018.52 1018.48 1018.25 1017.65 1017.33 1016.97 1016.86 1016.48 1016.61 1016.49 1016.99 1017.29 1017.44 1016.83 1016.04 1016.50 1016.33 1016.39 1016.20 1015.66 1015.72 1015.85 1016.22 1016.22
1020.23 1020.15 1020.54 1020.21 1020.37 1020.47 1020.39 1020.34 1020.34 1020.29 1020.15 1020.08 1019.85 1019.75 1019.63 1019.57 1019.40 1019.16 1018.95 1018.66 1018.37 1018.02 1017.92 1017.53 1017.23 1016.98 1016.51 1015.96 1016.10 1016.10 1016.35 1016.69 1016.12 1015.85 1016.03 1016.21 1015.50 1015.46 1015.03 1015.01 1015.11 1015.43 1015.34
1020.71 1020.78 1020.92 1020.70 1020.78 1020.88 1020.83 1020.58 1020.61 1020.60 1020.49 1020.42 1020.31 1020.18 1020.16 1020.05 1019.69 1019.61 1019.09 1018.71 1018.17 1018.38 1017.89 1017.53 1018.04 1017.46 1016.97 1016.99 1016.31 1016.13 1016.03 1015.57 1015.67 1015.83 1015.55 1016.27 1015.24 1014.76 1014.20 1014.24 1014.43 1014.64 1014.66
1020.96 1021.00 1021.08 1020.98 1020.90 1020.96 1020.96 1020.93 1020.95 1020.84 1020.75 1020.80 1020.60 1020.60 1020.55 1020.27 1019.93 1020.13 1018.85 1019.24 1018.29 1018.04 1017.95 1017.71 1017.43 1017.50 1016.69 1017.01 1016.51 1016.08 1015.56 1015.98 1015.78 1015.15 1015.44 1015.53 1014.79 1014.74 1014.46 1013.99 1013.90 1013.89 1013.98
1021.32 1021.34 1021.38 1021.21 1021.22 1021.41 1021.29 1021.28 1021.21 1021.08 1021.17 1021.25 1021.13 1020.97 1020.74 1020.65 1020.25 1020.11 1019.64 1019.35 1018.70 1018.05 1017.60 1017.38 1016.80 1017.01 1016.59 1016.46 1016.11 1015.92 1015.56 1015.42 1015.35 1014.94 1014.74 1015.09 1014.80 1014.80 1014.32 1013.65 1013.66 1013.77 1013.88
Wind_Speed
4 4 4 4 3 2 3 3 3 4 5 6 5 6 5 6 5 3 1 8 8 8 8 9 9 9 9 9 8 7 7 6 7 7 7 7 7 7 8 7 7 7 10
5 4 4 4 3 3 3 4 4 4 4 6 5 5 5 5 5 5 3 4 8 6 6 6 7 7 6 7 6 5 4 5 4 5 5 6 5 5 6 5 6 7 7
6 5 4 4 4 3 5 4 4 4 5 4 6 5 4 4 4 5 4 3 4 6 4 4 5 4 4 5 4 4 3 2 2 2 2 3 3 4 3 3 4 5 6
7 6 5 4 4 4 4 4 4 4 4 4 3 3 3 3 4 4 4 3 3 2 3 3 3 3 3 3 4 4 4 3 2 2 1 0 2 2 2 3 4 5 6
7 6 5 5 5 4 4 4 1 4 3 3 4 3 3 3 5 3 5 5 5 4 3 5 5 4 3 5 5 6 5 5 5 4 4 2 3 3 3 3 4 5 6
7 6 4 6 5 4 4 2 3 2 2 4 2 2 1 2 2 3 5 4 5 5 5 5 3 4 7 8 8 8 7 8 8 7 6 6 5 5 5 5 5 6 7
6 6 4 5 5 5 5 5 3 3 1 2 4 2 2 3 4 4 3 4 5 5 5 5 4 3 4 12 12 11 10 11 10 10 10 9 8 8 7 6 6 7 8
7 6 6 5 6 5 5 5 4 3 1 4 4 2 2 4 3 5 4 4 7 4 5 6 6 6 5 4 7 13 14 13 13 13 12 12 11 9 9 9 8 9 8
7 7 7 6 6 5 5 5 5 6 4 3 2 4 1 4 2 1 5 5 6 4 5 6 7 7 7 6 8 10 16 16 15 15 15 14 13 12 11 11 11 10 10
7 7 7 7 6 4 6 5 5 4 5 5 1 3 1 3 2 4 2 4 5 6 7 5 6 7 7 6 10 13 15 17 18 17 17 16 15 15 14 14 13 12 11
7 7 7 7 6 5 5 7 5 5 4 4 3 2 2 1 1 2 4 4 2 5 5 6 7 6 7 8 7 10 18 19 20 20 19 18 18 17 17 16 15 14 13
5 6 7 6 6 6 6 6 6 6 6 4 4 4 4 4 4 3 4 5 4 5 4 5 6 7 7 7 10 15 18 20 21 21 21 20 20 20 19 18 17 16 15
4 7 7 6 5 6 7 6 6 7 6 6 7 6 4 5 4 3 3 4 4 3 4 4 5 6 6 6 8 15 17 20 22 22 22 22 21 21 20 20 19 18 17
8 9 9 8 9 8 8 7 4 6 6 7 8 7 6 7 5 4 5 4 4 4 3 7 4 6 7 7 10 14 10 19 21 23 23 23 21 19 20 21 20 18 18
7 7 9 8 8 9 7 8 8 10 9 10 10 10 9 8 7 8 8 8 7 4 5 4 4 6 5 4 9 7 9 14 20 22 22 21 20 19 19 20 20 19 19
8 7 9 9 8 9 9 9 9 10 9 9 9 10 10 8 8 6 6 6 6 8 8 5 7 6 4 4 7 8 10 13 18 21 22 22 21 20 20 20 22 22 20
11 11 12 12 12 11 10 10 12 11 10 11 7 9 12 11 9 8 7 8 9 9 11 11 5 4 6 8 7 6 7 8 8 21 23 22 21 20 20 20 21 21 22
9 11 10 10 11 11 11 9 11 10 11 12 12 10 12 7 10 10 8 11 11 11 9 16 12 6 9 9 8 7 7 8 9 14 20 20 20 21 21 21 21 21 20
3 2 6 8 8 9 8 9 11 10 10 11 11 10 12 10 11 11 11 10 10 9 10 10 12 9 5 2 4 4 5 7 6 10 15 18 21 23 22 22 21 20 19
4 4 4 3 2 1 1 2 5 9 9 9 10 11 12 12 13 13 12 13 12 11 10 10 10 10 9 2 2 7 8 4 7 5 12 15 17 20 23 23 22 21 20
4 4 5 5 5 5 5 5 4 4 4 4 5 7 9 11 13 14 10 11 12 11 10 11 11 10 9 5 8 3 6 6 5 6 4 7 7 8 11 20 19 21 22
4 3 4 1 3 3 6 7 6 3 5 5 5 5 5 7 8 9 10 10 10 10 11 9 10 11 12 7 6 7 7 3 5 3 3 5 6 8 8 8 17 22 24
3 3 2 2 1 1 7 6 6 4 4 4 4 5 6 4 6 8 9 9 7 7 6 6 10 9 10 4 5 5 7 6 8 3 3 5 5 8 6 8 20 24 24
3 3 2 3 2 3 5 7 8 4 3 4 5 7 7 7 7 9 8 8 7 8 7 5 8 8 8 10 8 6 7 7 3 1 3 5 3 5 4 6 18 23 24
3 3 2 2 3 4 4 9 6 4 5 6 5 5 5 5 11 15 8 10 9 7 6 9 9 14 13 16 11 6 4 2 5 3 6 3 2 3 2 4 7 21 23
3 3 5 6 11 6 12 11 9 4 5 4 5 5 10 11 15 16 10 9 10 10 12 11 9 10 9 8 11 8 7 6 6 3 6 5 2 2 4 1 2 3 6
Wind_Direction
138 129 130 128 123 114 115 90 92 96 96 108 106 116 118 114 109 104 61 122 120 119 118 114 110 106 105 102 99 95 91 85 82 78 73 70 59 56 55 41 30 32 27
147 145 143 149 153 173 150 135 138 103 94 114 111 120 130 127 122 118 107 79 82 85 120 123 123 123 122 116 115 113 106 95 88 85 76 69 58 54 48 33 22 25 22
160 163 153 161 169 170 137 113 85 90 90 88 113 127 133 144 140 138 129 122 95 91 105 143 142 144 146 145 142 135 137 124 112 91 83 69 62 44 35 20 18 17 9
149 142 143 149 157 145 127 125 128 97 111 113 119 124 146 163 167 168 162 163 158 156 120 158 177 176 186 193 192 189 186 192 203 215 77 328 25 346 341 344 356 356 352
150 143 146 140 140 135 135 145 107 129 135 123 148 152 156 176 193 180 194 199 200 193 200 219 202 208 224 232 230 230 217 219 227 237 246 255 275 285 300 323 333 336 338
156 144 148 145 146 137 137 132 135 65 145 153 112 104 296 226 206 211 208 217 213 213 212 215 231 239 233 237 236 241 243 240 238 243 250 251 256 273 283 305 317 320 315
159 156 156 151 152 152 167 163 123 139 89 142 96 346 312 268 261 240 219 224 228 225 223 223 221 227 247 242 243 246 246 247 246 246 247 251 252 260 277 286 296 300 298
166 164 160 172 163 147 157 169 153 128 133 177 139 96 304 317 281 239 228 230 233 223 228 229 226 227 230 235 245 248 247 250 251 251 250 251 255 258 269 276 280 284 286
165 166 176 165 169 164 171 181 173 159 161 210 216 147 118 237 313 306 243 232 237 233 241 232 226 227 226 225 235 242 243 245 252 255 255 254 256 258 259 267 269 274 278
173 171 178 172 173 178 177 185 177 172 138 189 246 224 213 148 195 323 293 260 235 240 241 245 240 233 224 224 227 228 234 238 245 252 255 255 255 256 255 257 263 267 271
183 178 182 182 181 179 188 179 171 182 176 155 178 154 203 232 214 162 272 299 308 243 240 233 236 236 232 227 229 231 235 237 244 250 251 254 257 255 255 253 257 261 265
195 193 187 186 188 184 182 190 190 190 197 186 176 194 180 176 203 191 233 265 235 273 252 237 232 235 238 225 227 228 229 236 243 247 251 256 255 254 256 257 254 258 260
194 206 190 190 190 196 194 185 191 198 198 203 199 209 199 214 176 184 171 248 244 275 280 249 238 233 239 220 228 220 228 232 238 244 250 253 254 254 256 257 254 256 260
204 197 201 202 202 199 200 192 192 206 193 214 210 210 209 221 193 192 195 175 278 255 262 241 250 232 232 224 226 219 230 231 233 239 247 251 252 253 256 257 257 256 261
207 196 201 210 212 210 211 206 207 211 206 216 222 223 219 233 226 223 212 209 214 255 255 246 244 240 240 217 233 212 222 230 231 233 237 242 245 249 253 255 256 249 253
205 190 202 208 211 211 206 201 217 231 219 221 224 222 221 229 229 226 224 230 223 237 273 199 232 237 233 235 233 219 227 228 231 233 234 235 236 239 242 245 248 244 247
211 207 206 214 217 217 215 212 221 224 217 231 221 220 228 227 230 227 219 223 228 221 240 264 219 230 228 231 242 217 226 226 236 235 236 236 235 236 239 242 247 246 245
219 222 226 222 221 219 226 214 225 223 214 225 228 226 241 240 242 243 235 237 240 239 235 249 260 232 218 232 243 228 230 227 233 243 239 239 237 236 237 238 239 243 243
137 246 224 218 225 225 215 215 228 230 227 230 232 227 237 237 242 247 243 240 241 244 243 250 260 269 260 231 255 259 242 243 241 250 245 241 238 239 238 237 236 240 239
67 58 15 341 102 62 304 279 248 242 239 236 236 241 243 244 243 247 247 245 247 251 246 247 254 258 263 229 225 257 264 217 253 227 235 233 236 238 235 234 238 236 230
57 59 51 20 3 76 49 26 356 322 304 312 303 255 250 256 258 252 249 251 247 245 247 247 251 253 246 228 236 244 243 263 245 225 243 236 235 232 239 240 236 229 230
68 49 92 24 70 51 56 35 12 342 333 316 312 327 326 321 7 356 338 314 286 283 273 257 258 257 260 251 247 234 244 229 276 192 197 262 202 236 230 221 229 231 231
82 67 349 94 30 69 38 12 15 349 337 332 336 342 340 339 344 355 346 323 315 332 301 304 288 299 299 267 266 261 234 241 252 224 159 260 186 241 232 236 235 237 235
76 82 52 46 53 73 19 14 16 357 352 355 3 18 6 348 355 352 344 325 337 324 330 344 320 321 330 327 331 303 272 255 302 237 123 260 177 238 214 224 235 237 236
74 62 58 46 52 53 46 49 34 26 20 20 12 2 352 348 360 349 1 322 329 316 316 321 307 300 306 294 291 294 272 221 272 238 195 238 200 275 261 235 228 234 236
61 58 62 51 63 51 47 39 33 30 30 14 8 2 1 355 348 342 339 325 317 323 330 318 334 313 302 293 296 291 288 260 255 296 201 199 181 198 288 214 258 247 248